Location: Rowland
(34.5359°N, 79.2929°W)
Time: 06:29:43
(UTC+00:00)

Explorer 7 - Visible Passes

Search period start: 30 September 2023 00:00
Search period end: 10 October 2023 00:00
Orbit: 474 x 645 km, 50.3° (Epoch: 29 September)

Date Brightness Start Highest point End Pass type
(mag) Time Alt. Az. Time Alt. Az. Time Alt. Az.
30 Sep 9.6 23:57:54 10° NNW 23:58:56 11° NNW 23:59:59 10° N visible
04 Oct 9.7 01:31:38 10° NNW 01:31:56 11° NNW 01:31:56 11° NNW visible
05 Oct 9.6 01:28:59 10° NNW 01:29:35 13° NNW 01:29:35 13° NNW visible
05 Oct 9.3 23:47:36 10° N 23:48:50 11° N 23:50:05 10° NNE visible
06 Oct 9.5 01:26:23 10° NNW 01:27:15 15° NNW 01:27:15 15° NNW visible
06 Oct 9.1 23:44:48 10° NNW 23:46:46 13° NNE 23:48:40 10° NE visible
07 Oct 9.4 01:23:49 10° NW 01:24:57 17° NNW 01:24:57 17° NNW visible
07 Oct 9.0 23:42:04 10° NNW 23:44:37 15° NNE 23:46:51 11° NE visible
08 Oct 9.2 01:21:17 10° NW 01:22:42 20° NW 01:22:42 20° NW visible
08 Oct 8.7 23:39:23 10° NNW 23:42:27 18° NNE 23:44:40 13° ENE visible
09 Oct 9.0 01:18:48 10° NW 01:20:31 23° NW 01:20:31 23° NW visible
09 Oct 8.3 23:36:42 10° NNW 23:40:14 23° NNE 23:42:33 15° ENE visible
